Location: Unspecified
(47.9110°N, 14.3980°E)
Time: 16:20:21
(UTC+00:00)

Cosmos 2084 Rocket - Pass Details

Date: 06 August 2020
Orbit: 550 x 631 km, 62.8° (Epoch: 18 September)

Event Time Altitude Azimuth Distance (km) Brightness Sun altitude
Exits shadow 23:20:55 42° 302° (WNW) 822 4.3 -25.7°
Maximum altitude 23:21:20 44° 320° (NW) 806 4.4 -25.7°
Drops below altitude 10° 23:25:28 10° 33° (NNE) 1,918 6.9 -25.6°
Sets 23:27:51 0° 40° (NE) 2,837 7.8 -25.6°
